| time (UTC) | temp F | wind direction | speed MPH | gust MPH | rain 1hr in | rain 24hr in | rain mn in | humidity % | barometer mb |
| 20260506031515 | 51 | 345 | 0.0 | 0.0 | 0.00 | 0.21 | 0.21 | 73 | 1011.0 |
| 20260506030012 | 52 | 345 | 0.0 | 0.0 | 0.00 | 0.21 | 0.21 | 71 | 1010.7 |
| 20260506024524 | 52 | 345 | 0.0 | 0.0 | 0.00 | 0.21 | 0.21 | 67 | 1010.6 |
| 20260506023011 | 52 | 345 | 0.0 | 0.0 | 0.00 | 0.21 | 0.21 | 66 | 1010.5 |
| 20260506021509 | 52 | 345 | 0.0 | 4.0 | 0.00 | 0.21 | 0.21 | 65 | 1010.2 |
| 20260506020009 | 52 | 310 | 0.0 | 4.0 | 0.00 | 0.21 | 0.21 | 65 | 1010.1 |
| 20260506014515 | 52 | 321 | 0.0 | 2.0 | 0.00 | 0.21 | 0.21 | 72 | 1009.9 |
| 20260506013007 | 53 | 321 | 0.0 | 0.0 | 0.00 | 0.21 | 0.21 | 67 | 1009.7 |
| 20260506011513 | 54 | 321 | 0.0 | 0.0 | 0.00 | 0.21 | 0.21 | 60 | 1009.4 |
| 20260506010010 | 54 | 321 | 0.0 | 3.0 | 0.00 | 0.21 | 0.21 | 57 | 1009.2 |
| 20260506004507 | 55 | 321 | 0.0 | 4.0 | 0.00 | 0.21 | 0.21 | 56 | 1009.2 |
| 20260506003005 | 55 | 324 | 2.0 | 6.0 | 0.00 | 0.21 | 0.21 | 55 | 1009.1 |
| 20260506001504 | 55 | 320 | 1.0 | 4.0 | 0.00 | 0.21 | 0.21 | 55 | 1009.1 |
| 20260506000004 | 55 | 330 | 0.0 | 4.0 | 0.00 | 0.21 | 0.21 | 57 | 1008.9 |
| 20260505234510 | 55 | 307 | 1.0 | 6.0 | 0.00 | 0.21 | 0.21 | 60 | 1008.9 |
| 20260505233003 | 56 | 309 | 1.0 | 3.0 | 0.00 | 0.21 | 0.21 | 75 | 1008.8 |
| 20260505231503 | 55 | 308 | 0.0 | 2.0 | 0.00 | 0.21 | 0.21 | 76 | 1008.8 |
| 20260505230002 | 56 | 308 | 0.0 | 1.0 | 0.00 | 0.21 | 0.21 | 75 | 1009.0 |
| 20260505224601 | 55 | 308 | 1.0 | 3.0 | 0.00 | 0.21 | 0.21 | 74 | 1008.6 |
| 20260505223002 | 55 | 308 | 0.0 | 4.0 | 0.00 | 0.21 | 0.21 | 75 | 1008.5 |
| 20260505221500 | 55 | 309 | 0.0 | 2.0 | 0.00 | 0.21 | 0.21 | 74 | 1008.7 |
| 20260505214604 | 55 | 8 | 0.0 | 4.0 | 0.00 | 0.21 | 0.21 | 75 | 1008.8 |
| 20260505213059 | 54 | 10 | 0.0 | 4.0 | 0.00 | 0.21 | 0.21 | 74 | 1008.8 |
| 20260505211634 | 54 | 11 | 0.0 | 4.0 | 0.00 | 0.21 | 0.21 | 73 | 1008.8 |
| 20260505210058 | 54 | 25 | 1.0 | 3.0 | 0.00 | 0.21 | 0.21 | 73 | 1008.8 |
| 20260505204559 | 54 | 335 | 0.0 | 3.0 | 0.00 | 0.21 | 0.21 | 73 | 1008.9 |
| 20260505203123 | 54 | 341 | 1.0 | 4.0 | 0.00 | 0.21 | 0.21 | 75 | 1009.2 |
| 20260505201559 | 53 | 345 | 2.0 | 5.0 | 0.00 | 0.21 | 0.21 | 73 | 1009.1 |
| 20260505200056 | 53 | 345 | 2.0 | 5.0 | 0.00 | 0.21 | 0.21 | 72 | 1009.3 |
| 20260505194556 | 52 | 347 | 0.0 | 4.0 | 0.00 | 0.21 | 0.21 | 71 | 1009.2 |
| 20260505193056 | 52 | 339 | 2.0 | 4.0 | 0.00 | 0.21 | 0.21 | 74 | 1009.4 |
| 20260505191557 | 52 | 339 | 1.0 | 4.0 | 0.00 | 0.21 | 0.21 | 74 | 1009.3 |
| 20260505190056 | 52 | 67 | 0.0 | 3.0 | 0.00 | 0.21 | 0.21 | 75 | 1009.5 |
| 20260505184555 | 52 | 67 | 0.0 | 3.0 | 0.00 | 0.21 | 0.21 | 74 | 1009.5 |
| 20260505183053 | 52 | 70 | 0.0 | 4.0 | 0.00 | 0.21 | 0.21 | 77 | 1009.5 |
| 20260505181554 | 51 | 69 | 0.0 | 2.0 | 0.00 | 0.21 | 0.21 | 78 | 1009.7 |
| 20260505180100 | 51 | 64 | 2.0 | 4.0 | 0.00 | 0.21 | 0.21 | 80 | 1009.6 |
| 20260505174553 | 51 | 45 | 1.0 | 4.0 | 0.00 | 0.21 | 0.21 | 80 | 1009.5 |
| 20260505173052 | 50 | 43 | 2.0 | 6.0 | 0.00 | 0.21 | 0.21 | 80 | 1009.7 |
| 20260505171556 | 50 | 67 | 2.0 | 8.0 | 0.00 | 0.21 | 0.21 | 82 | 1009.7 |
| 20260505170051 | 50 | 37 | 1.0 | 6.0 | 0.01 | 0.21 | 0.21 | 83 | 1009.7 |
| 20260505164551 | 50 | 42 | 0.0 | 4.0 | 0.01 | 0.21 | 0.21 | 84 | 1010.0 |
| 20260505163050 | 50 | 43 | 2.0 | 4.0 | 0.01 | 0.21 | 0.21 | 83 | 1010.1 |
| 20260505161549 | 49 | 49 | 1.0 | 5.0 | 0.01 | 0.21 | 0.21 | 85 | 1010.0 |
| 20260505153051 | 49 | 4 | 1.0 | 3.0 | 0.03 | 0.20 | 0.20 | 88 | 1009.7 |
| 20260505151549 | 48 | 359 | 0.0 | 2.0 | 0.05 | 0.20 | 0.20 | 88 | 1009.8 |
| 20260505124529 | 49 | 359 | 0.0 | 3.0 | 0.03 | 0.03 | 0.03 | 82 | 1008.0 |
| 20260505123025 | 51 | 359 | 0.0 | 3.0 | 0.02 | 0.02 | 0.02 | 74 | 1007.2 |
| 20260505121522 | 51 | 359 | 1.0 | 4.0 | 0.01 | 0.01 | 0.01 | 68 | 1006.9 |
| 20260505120023 | 52 | 43 | 1.0 | 4.0 | 0.01 | 0.01 | 0.01 | 65 | 1006.3 |
| 20260505114515 | 54 | 8 | 2.0 | 4.0 | 0.00 | 0.00 | 0.00 | 55 | 1006.9 |
| 20260505113014 | 54 | 10 | 1.0 | 6.0 | 0.00 | 0.00 | 0.00 | 52 | 1006.4 |
| 20260505111525 | 54 | 9 | 3.0 | 7.0 | 0.00 | 0.00 | 0.00 | 51 | 1006.6 |
| 20260505101517 | 55 | 8 | 6.0 | 11.0 | 0.00 | 0.00 | 0.00 | 49 | 1006.4 |
| 20260505100005 | 55 | 8 | 5.0 | 11.0 | 0.00 | 0.00 | 0.00 | 49 | 1006.6 |
| 20260505094502 | 55 | 8 | 4.0 | 9.0 | 0.00 | 0.00 | 0.00 | 51 | 1006.6 |
| 20260505093100 | 55 | 26 | 3.0 | 8.0 | 0.00 | 0.00 | 0.00 | 51 | 1005.9 |
| 20260505091616 | 56 | 8 | 4.0 | 9.0 | 0.00 | 0.00 | 0.00 | 51 | 1005.9 |
| 20260505084605 | 56 | 4 | 4.0 | 14.0 | 0.00 | 0.00 | 0.00 | 50 | 1005.0 |
| 20260505083105 | 56 | 9 | 7.0 | 16.0 | 0.00 | 0.00 | 0.00 | 50 | 1004.8 |
| 20260505081552 | 56 | 4 | 4.0 | 9.0 | 0.00 | 0.00 | 0.00 | 49 | 1004.9 |
| 20260505080050 | 57 | 9 | 6.0 | 12.0 | 0.00 | 0.00 | 0.00 | 48 | 1005.5 |
| 20260505074548 | 57 | 18 | 5.0 | 14.0 | 0.00 | 0.00 | 0.00 | 48 | 1005.7 |
| 20260505073049 | 57 | 359 | 4.0 | 13.0 | 0.00 | 0.00 | 0.00 | 49 | 1005.6 |
| 20260505071542 | 58 | 18 | 6.0 | 12.0 | 0.00 | 0.00 | 0.00 | 46 | 1006.1 |
| 20260505070053 | 59 | 21 | 4.0 | 18.0 | 0.00 | 0.00 | 0.00 | 44 | 1005.6 |
| 20260505064537 | 59 | 4 | 5.0 | 19.0 | 0.00 | 0.00 | 0.00 | 44 | 1005.1 |
| 20260505063032 | 60 | 8 | 7.0 | 14.0 | 0.00 | 0.00 | 0.00 | 43 | 1003.9 |
| 20260505061538 | 60 | 8 | 5.0 | 14.0 | 0.00 | 0.00 | 0.00 | 44 | 1003.7 |
| 20260505060025 | 61 | 9 | 7.0 | 16.0 | 0.00 | 0.00 | 0.00 | 43 | 1003.6 |
| 20260505054528 | 62 | 8 | 7.0 | 16.0 | 0.00 | 0.00 | 0.00 | 42 | 1003.4 |
| 20260505053023 | 63 | 19 | 7.0 | 19.0 | 0.00 | 0.00 | 0.00 | 41 | 1003.4 |
| 20260505051516 | 66 | 4 | 7.0 | 15.0 | 0.00 | 0.00 | 0.00 | 40 | 1003.0 |
| 20260505041511 | 70 | 31 | 4.0 | 10.0 | 0.00 | 0.00 | 0.00 | 39 | 1001.3 |
| 20260505040019 | 71 | 30 | 2.0 | 7.0 | 0.00 | 0.00 | 0.00 | 39 | 1001.2 |
| 20260505034509 | 71 | 8 | 3.0 | 10.0 | 0.00 | 0.00 | 0.00 | 39 | 1001.1 |
| 20260505033013 | 72 | 9 | 5.0 | 12.0 | 0.00 | 0.00 | 0.00 | 42 | 1000.7 |